Location: Montr�al
(45.5000°N, 73.5830°W)
Time: 20:27:07
(UTC-04:00)

Cosmos 1151 Rocket - Visible Passes

Search period start: 27 August 2015 00:00
Search period end: 06 September 2015 00:00
Orbit: 594 x 617 km, 82.5° (Epoch: 26 August)

Date Brightness Start Highest point End Pass type
(mag) Time Alt. Az. Time Alt. Az. Time Alt. Az.
27 Aug 5.7 01:02:43 14° NE 01:02:43 14° NE 01:03:37 10° NE visible
27 Aug 5.1 02:39:35 21° NNW 02:39:35 21° NNW 02:41:24 10° N visible
28 Aug 5.6 01:15:45 18° NNE 01:15:45 18° NNE 01:17:01 10° NNE visible
28 Aug 5.4 02:52:38 15° NW 02:52:38 15° NW 02:53:55 10° NNW visible
29 Aug 5.5 01:28:47 20° NNE 01:28:47 20° NNE 01:30:11 10° NNE visible
29 Aug 5.7 03:05:39 11° NW 03:05:39 11° NW 03:05:55 10° NW visible
30 Aug 5.5 01:41:48 20° N 01:41:48 20° N 01:43:13 10° N visible
31 Aug 5.5 01:54:49 18° NNW 01:54:49 18° NNW 01:56:05 10° N visible
01 Sep 6.0 00:30:57 11° NNE 00:30:57 11° NNE 00:31:14 10° NNE visible
01 Sep 5.7 02:07:49 15° NNW 02:07:49 15° NNW 02:08:47 10° NNW visible
02 Sep 5.9 00:43:56 14° NNE 00:43:56 14° NNE 00:44:34 10° NNE visible
02 Sep 5.8 02:20:48 11° NNW 02:20:48 11° NNW 02:21:12 10° NNW visible
03 Sep 5.9 00:56:56 15° NNE 00:56:56 15° NNE 00:57:42 10° NNE visible
04 Sep 5.9 01:09:54 15° N 01:09:54 15° N 01:10:40 10° N visible
05 Sep 6.0 01:22:53 14° N 01:22:53 14° N 01:23:30 10° N visible
